Le nostre stazioni meteo in Italia

Pubblicità
Il mio iltempo24.it
Kleine Brogel, Belgio (6479): Temperatura & dewpoint: 17.05.2017 16:00:00 - 23.05.2017 16:00:00 (CEST)Kleine Brogel, Belgio (6479): velocità del vento & gusts: 17.05.2017 16:00:00 - 23.05.2017 16:00:00 (CEST)Kleine Brogel, Belgio (6479): direzione del vento: 17.05.2017 16:00:00 - 23.05.2017 16:00:00 (CEST)Kleine Brogel, Belgio (6479): reduced air pressure: 17.05.2017 16:00:00 - 23.05.2017 16:00:00 (CEST)Kleine Brogel, Belgio (6479): visibility: 17.05.2017 16:00:00 - 23.05.2017 16:00:00 (CEST)Kleine Brogel, Belgio (6479): precipitazioni: 17.05.2017 16:00:00 - 23.05.2017 16:00:00 (CEST)
Data & Tempo tt [°C] td [°C] ff [km/h] ff [kn] fx [km/h] fx [kn] dd ppp [hPa] vv [km] rr [mm]
23.05.2017 16:00:00 22,1 9,6 18 10 40 21 ONO 1020,3 20 -
23.05.2017 15:00:00 22,5 10,9 18 10 36 19 ONO 1020,1 20 -
23.05.2017 14:00:00 21,5 12,0 18 10 - - O 1019,5 20 -
23.05.2017 13:00:00 22,2 12,4 18 10 36 19 O 1018,8 20 -
23.05.2017 12:00:00 22,2 11,0 22 12 32 18 OSO 1018,5 20 -
23.05.2017 11:00:00 21,1 10,8 14 8 - - O 1017,8 20 -
23.05.2017 10:00:00 20,1 10,4 14 8 22 12 O 1017,3 20 -
23.05.2017 09:00:00 18,8 11,4 11 6 22 12 O 1017,1 20 -
23.05.2017 08:00:00 17,5 11,6 14 8 - - OSO 1016,6 20 -
23.05.2017 07:00:00 15,1 10,8 7 4 11 6 SSO 1016,0 20 -
23.05.2017 06:00:00 13,9 10,3 4 2 7 4 - 1016,0 20 -
23.05.2017 05:00:00 13,5 10,1 4 2 - - - 1015,8 19 -
23.05.2017 04:00:00 14,4 9,7 4 2 7 4 - 1015,7 20 -
23.05.2017 03:00:00 15,1 9,8 4 2 11 6 - 1015,2 20 -
23.05.2017 02:00:00 15,5 10,0 7 4 - - OSO 1015,3 20 2,5
23.05.2017 01:00:00 16,4 10,5 7 4 11 6 SO 1015,5 20 -
23.05.2017 00:00:00 16,7 10,6 2 1 4 2 - 1015,7 10 -
22.05.2017 23:00:00 17,3 10,6 0 0 - - N 1015,7 20 -
22.05.2017 22:00:00 18,7 10,1 0 0 4 2 N 1015,7 20 -
22.05.2017 21:00:00 21,2 9,3 4 2 7 4 - 1015,3 20 -
22.05.2017 20:00:00 22,7 8,9 4 2 - - - 1015,5 20 -
22.05.2017 19:00:00 24,2 8,4 4 2 14 8 - 1015,6 20 -
22.05.2017 18:00:00 24,9 8,2 7 4 22 12 E 1015,7 20 -
22.05.2017 17:00:00 25,0 8,1 7 4 - - - 1016,3 20 -
22.05.2017 16:00:00 24,3 8,4 4 2 22 12 - 1016,8 20 -
22.05.2017 15:00:00 24,2 7,6 7 4 22 12 ESE 1017,5 20 -
22.05.2017 14:00:00 23,3 8,4 7 4 - - E 1017,7 20 -
22.05.2017 13:00:00 22,8 8,3 7 4 22 12 SO 1018,2 20 -
22.05.2017 12:00:00 22,4 8,6 7 4 18 10 E 1018,8 20 -
22.05.2017 11:00:00 20,3 9,0 4 2 - - - 1019,7 20 -
22.05.2017 10:00:00 19,2 8,7 7 4 14 8 E 1020,0 15 -
22.05.2017 09:00:00 16,8 8,5 7 4 18 10 E 1020,2 15 -
22.05.2017 08:00:00 13,9 8,0 4 2 - - - 1020,3 15 -
22.05.2017 07:00:00 10,2 7,3 2 1 4 2 - 1020,6 10 -
22.05.2017 06:00:00 7,1 6,0 4 2 0 0 - 1021,0 15 -
22.05.2017 05:00:00 7,5 6,0 4 2 - - - 1021,1 17 -
22.05.2017 04:00:00 8,3 6,3 4 2 4 2 - 1021,5 14 -
22.05.2017 03:00:00 9,3 6,7 4 2 4 2 - 1021,8 20 -
22.05.2017 02:00:00 9,5 6,4 4 2 - - - 1022,6 20 2,1
22.05.2017 01:00:00 10,8 6,4 0 0 0 0 N 1022,7 20 -
22.05.2017 00:00:00 12,0 6,3 0 0 4 2 N 1023,2 20 -
21.05.2017 23:00:00 12,8 6,2 4 2 - - - 1023,3 20 -
21.05.2017 22:00:00 15,2 5,4 4 2 14 8 - 1023,3 20 -
21.05.2017 21:00:00 18,1 5,5 7 4 14 8 E 1023,2 20 -
21.05.2017 20:00:00 19,1 5,7 11 6 - - E 1023,7 20 -
21.05.2017 19:00:00 20,1 5,5 4 2 14 8 - 1024,0 20 -
21.05.2017 18:00:00 20,7 4,8 7 4 14 8 ENE 1024,5 20 -
21.05.2017 17:00:00 20,0 5,4 7 4 - - - 1025,2 20 -
21.05.2017 16:00:00 19,7 4,1 4 2 14 8 - 1026,0 20 -
21.05.2017 15:00:00 19,4 5,4 7 4 14 8 SSE 1026,2 20 -
21.05.2017 14:00:00 18,7 5,6 4 2 - - - 1026,7 20 -
21.05.2017 13:00:00 19,4 5,6 7 4 18 10 SE 1027,0 20 -
21.05.2017 12:00:00 18,5 5,6 4 2 14 8 - 1027,5 20 -
21.05.2017 11:00:00 17,5 6,6 7 4 - - S 1027,5 20 -
21.05.2017 10:00:00 16,3 7,2 4 2 14 8 - 1027,7 20 -
21.05.2017 09:00:00 14,2 7,5 4 2 7 4 - 1027,7 20 -
21.05.2017 08:00:00 11,9 7,5 4 2 - - - 1027,4 19 -
21.05.2017 07:00:00 8,0 6,4 2 1 4 2 - 1027,4 10 -
21.05.2017 06:00:00 5,6 5,1 2 1 0 0 - 1027,0 3,8 -
21.05.2017 05:00:00 6,9 5,8 4 2 - - - 1026,9 17 -
21.05.2017 04:00:00 7,0 6,0 4 2 4 2 - 1026,7 20 -
21.05.2017 03:00:00 7,3 6,1 4 2 4 2 - 1026,7 20 -
21.05.2017 02:00:00 8,0 6,3 4 2 - - - 1026,5 20 1,8
21.05.2017 01:00:00 8,8 6,3 4 2 4 2 - 1026,4 20 -
21.05.2017 00:00:00 10,6 6,6 4 2 11 6 - 1025,9 20 -
20.05.2017 23:00:00 11,3 6,5 4 2 - - - 1025,7 20 -
20.05.2017 22:00:00 11,6 6,2 4 2 7 4 - 1025,0 20 -
20.05.2017 21:00:00 14,2 5,1 4 2 14 8 - 1024,5 20 -
20.05.2017 20:00:00 16,2 4,3 7 4 - - S 1024,0 20 -
20.05.2017 19:00:00 16,0 5,4 11 6 25 14 SSO 1023,5 20 -
20.05.2017 18:00:00 16,3 5,4 11 6 32 18 SSO 1023,2 20 -
20.05.2017 17:00:00 16,7 5,9 18 10 - - OSO 1022,8 20 -
20.05.2017 16:00:00 14,9 5,8 22 12 32 18 OSO 1022,8 20 -
20.05.2017 15:00:00 17,6 7,0 14 8 29 16 SO 1022,2 20 -
20.05.2017 14:00:00 14,8 6,1 18 10 - - OSO 1022,0 19 -
20.05.2017 13:00:00 15,2 6,7 18 10 32 18 SO 1021,5 20 -
20.05.2017 12:00:00 14,3 8,6 11 6 29 16 SSO 1021,1 20 -
20.05.2017 11:00:00 13,9 7,6 14 8 - - SO 1020,3 20 -
20.05.2017 10:00:00 12,6 8,3 18 10 32 18 SO 1019,8 20 -
20.05.2017 09:00:00 11,7 8,0 18 10 25 14 SO 1019,2 20 -
20.05.2017 08:00:00 10,5 7,5 11 6 - - SSO 1018,7 20 -
20.05.2017 07:00:00 9,6 7,4 4 2 11 6 - 1018,2 20 -
20.05.2017 06:00:00 8,6 7,2 7 4 14 8 SSO 1017,5 20 -
20.05.2017 05:00:00 8,8 7,3 7 4 - - SSO 1017,1 20 -
20.05.2017 04:00:00 9,0 7,2 4 2 11 6 - 1017,0 20 -
20.05.2017 03:00:00 8,7 7,7 4 2 7 4 - 1016,7 20 -
20.05.2017 02:00:00 8,8 7,7 4 2 - - - 1016,3 20 1,7
20.05.2017 01:00:00 9,7 8,5 7 4 11 6 SSO 1016,3 20 -
20.05.2017 00:00:00 9,5 9,2 4 2 4 2 - 1016,1 9 -
19.05.2017 23:00:00 9,8 9,4 4 2 - - - 1016,1 17 -
19.05.2017 22:00:00 10,5 9,4 4 2 14 8 - 1015,5 20 -
19.05.2017 21:00:00 11,3 9,5 7 4 25 14 OSO 1014,8 20 -
19.05.2017 20:00:00 13,3 9,2 11 6 - - SO 1013,8 20 -
19.05.2017 19:00:00 13,6 9,6 11 6 14 8 SO 1013,7 20 -
19.05.2017 18:00:00 13,5 10,7 7 4 22 12 SO 1013,2 20 -
19.05.2017 17:00:00 13,5 10,3 11 6 - - SO 1013,2 20 -
19.05.2017 16:00:00 12,7 10,0 18 10 25 14 SO 1013,2 17 -
19.05.2017 15:00:00 12,8 10,2 13 7 0 0 SO 1013,1 10 -
19.05.2017 14:00:00 12,3 9,9 16 9 - - OSO 1013,0 10 -
19.05.2017 13:00:00 13,0 9,6 18 10 0 0 OSO 1012,7 10 -
19.05.2017 12:00:00 12,3 9,7 22 12 29 16 OSO 1012,3 20 -
19.05.2017 11:00:00 12,4 10,7 21 11 - - OSO 1011,7 10 -
19.05.2017 10:00:00 12,6 10,8 11 6 22 12 SSO 1011,8 20 -
19.05.2017 09:00:00 12,8 10,3 11 6 22 12 SSO 1011,2 20 -
19.05.2017 08:00:00 12,6 9,9 13 7 - - SO 1010,2 10 -
19.05.2017 07:00:00 12,6 10,3 18 10 36 19 SO 1009,7 18 -
19.05.2017 06:00:00 12,6 10,8 24 13 36 19 SO 1009,1 10 -
19.05.2017 05:00:00 13,6 12,2 22 12 - - SSO 1008,5 17 -
19.05.2017 04:00:00 15,0 13,6 7 4 22 12 S 1007,2 20 -
19.05.2017 03:00:00 15,1 13,8 9 5 18 10 SE 1006,8 4,9 -
19.05.2017 02:00:00 17,1 15,3 4 2 - - - 1007,5 7 2,1
19.05.2017 01:00:00 16,6 15,4 7 4 22 12 E 1007,5 4,0 -
19.05.2017 00:00:00 16,8 15,4 11 6 18 10 E 1008,2 4,9 -
18.05.2017 23:00:00 16,5 15,2 7 4 - - E 1009,0 5 -
18.05.2017 22:00:00 17,2 15,3 11 6 18 10 E 1009,0 9 -
18.05.2017 21:00:00 17,7 15,4 7 4 14 8 ENE 1009,6 8 -
18.05.2017 20:00:00 18,1 15,1 11 6 - - ENE 1009,8 8 -
18.05.2017 19:00:00 18,7 14,9 11 6 22 12 E 1010,6 14 -
18.05.2017 18:00:00 18,6 15,9 7 4 11 6 NNE 1011,2 9 -
18.05.2017 17:00:00 16,9 15,6 8 4 - - NNE 1011,7 6 -
18.05.2017 16:00:00 16,8 15,6 7 4 0 0 NNE 1012,2 6 -
18.05.2017 15:00:00 17,5 15,8 4 2 7 4 - 1012,6 8 -
18.05.2017 14:00:00 17,9 15,0 4 2 - - - 1013,1 6 -
18.05.2017 13:00:00 16,2 15,2 4 2 14 8 - 1013,3 6 -
18.05.2017 12:00:00 17,1 15,5 4 2 11 6 - 1013,2 6 -
18.05.2017 11:00:00 16,2 15,2 4 2 - - - 1013,2 4,0 -
18.05.2017 10:00:00 15,4 14,6 4 2 0 0 - 1013,2 2,5 -
18.05.2017 09:00:00 15,3 15,0 7 4 14 8 O 1012,8 2,5 -
18.05.2017 08:00:00 15,5 14,9 4 2 - - - 1012,2 2,3 -
18.05.2017 07:00:00 15,5 14,8 9 5 11 6 O 1011,6 2,0 -
18.05.2017 06:00:00 16,2 15,6 9 5 25 14 O 1011,1 2,0 -
18.05.2017 05:00:00 17,6 15,8 14 8 - - SO 1011,2 18 -
18.05.2017 04:00:00 19,3 13,9 14 8 25 14 SO 1010,3 20 -
18.05.2017 03:00:00 20,0 12,8 14 8 29 16 SO 1010,1 20 -
18.05.2017 02:00:00 21,6 11,6 14 8 - - SO 1010,2 20 3,0
18.05.2017 01:00:00 21,3 10,2 4 2 11 6 - 1009,7 20 -
18.05.2017 00:00:00 22,1 9,8 4 2 11 6 - 1010,1 20 -
17.05.2017 23:00:00 22,3 10,6 4 2 - - - 1010,7 20 -
17.05.2017 22:00:00 23,8 10,7 4 2 11 6 - 1010,8 20 -
17.05.2017 21:00:00 25,8 10,4 4 2 11 6 - 1011,1 20 -
17.05.2017 20:00:00 27,8 9,6 7 4 - - SSO 1011,3 20 -
17.05.2017 19:00:00 29,1 8,5 7 4 22 12 S 1011,7 20 -
17.05.2017 18:00:00 30,1 8,5 11 6 25 14 S 1012,5 20 -
17.05.2017 17:00:00 30,6 8,3 14 8 - - S 1013,3 20 -
17.05.2017 16:00:00 30,3 8,8 11 6 25 14 SE 1014,5 20 -

tt = Temperatura
td = dewpoint
ff = velocità del vento
fx = gusts
dd = direzione del vento
ppp = reduced air pressure
vv = visibility
rr = precipitazioni

Stazioni seguenti

WeatherPro
AMSI
MeteoEarth